DW6832 Weather Reports


time (UTC)temp
F
wind
direction
speed
knots
gust
knots
rain 1hr
in
rain 24hr
in
rain mn
in
humidity
%
barometer
mb
20210916104135 67 157 0.0 3.5 0.00 0.00 0.00 71 1008.9
20210916103635 67 163 0.0 2.6 0.00 0.00 0.00 71 1008.8
20210916103135 67 105 0.9 3.5 0.00 0.00 0.00 71 1009.0
20210916102633 67 159 0.9 3.5 0.00 0.00 0.00 70 1008.8
20210916102133 67 236 0.9 3.5 0.00 0.00 0.00 70 1009.0
20210916101634 67 283 0.0 3.5 0.00 0.00 0.00 69 1009.1
20210916101133 67 243 0.9 6.1 0.00 0.00 0.00 67 1009.1
20210916100631 67 247 0.0 6.1 0.00 0.00 0.00 67 1008.9
20210916100131 67 127 0.9 3.5 0.00 0.00 0.00 67 1008.9
20210916095631 67 65 0.0 3.5 0.00 0.00 0.00 67 1009.0
20210916095131 68 181 0.0 3.5 0.00 0.00 0.00 67 1009.0
20210916094631 68 253 0.9 3.5 0.00 0.00 0.00 67 1009.0
20210916094132 68 56 0.0 4.3 0.00 0.00 0.00 67 1009.0
20210916093631 68 90 0.0 4.3 0.00 0.00 0.00 67 1009.1
20210916093131 68 74 0.9 3.5 0.00 0.00 0.00 67 1009.2
20210916092631 68 74 0.0 3.5 0.00 0.00 0.00 67 1009.2
20210916092131 68 295 0.0 2.6 0.00 0.00 0.00 67 1009.2
20210916091629 68 155 0.9 5.2 0.00 0.00 0.00 67 1009.2
20210916091129 68 58 0.9 5.2 0.00 0.00 0.00 66 1009.2
20210916090629 68 73 0.9 3.5 0.00 0.00 0.00 66 1009.3
20210916090129 68 110 0.0 2.6 0.00 0.00 0.00 66 1009.3
20210916085629 68 73 0.0 2.6 0.00 0.00 0.00 66 1009.3
20210916085129 68 56 0.0 2.6 0.00 0.00 0.00 66 1009.3
20210916084629 68 98 0.0 4.3 0.00 0.00 0.00 66 1009.4
20210916084129 68 155 0.0 4.3 0.00 0.00 0.00 66 1009.4
20210916083629 68 143 0.9 4.3 0.00 0.00 0.00 65 1009.3
20210916083129 68 147 0.9 4.3 0.00 0.00 0.00 65 1009.3
20210916082627 68 150 0.9 4.3 0.00 0.00 0.00 64 1009.4
20210916082127 69 221 0.9 4.3 0.00 0.00 0.00 64 1009.4
20210916081626 69 86 0.9 3.5 0.00 0.00 0.00 64 1009.4
20210916081127 69 167 0.9 6.1 0.00 0.00 0.00 64 1009.4
20210916080626 69 243 0.9 6.1 0.00 0.00 0.00 63 1009.6
20210916080127 69 154 0.9 6.1 0.00 0.00 0.00 63 1009.5
20210916075629 69 80 0.9 3.5 0.00 0.00 0.00 63 1009.6
20210916075127 69 60 0.9 3.5 0.00 0.00 0.00 63 1009.6
20210916074627 69 192 0.9 7.0 0.00 0.00 0.00 63 1009.7
20210916074127 69 3 0.9 7.0 0.00 0.00 0.00 62 1009.8
20210916073625 69 93 0.9 2.6 0.00 0.00 0.00 62 1009.9
20210916073125 69 132 0.9 4.3 0.00 0.00 0.00 62 1010.0
20210916072625 69 140 0.9 4.3 0.00 0.00 0.00 62 1009.9
20210916072126 69 167 0.9 5.2 0.00 0.00 0.00 62 1009.9
20210916071625 69 190 1.7 7.0 0.00 0.00 0.00 62 1010.0
20210916071125 69 210 1.7 7.0 0.00 0.00 0.00 62 1010.0
20210916070625 69 188 0.9 7.0 0.00 0.00 0.00 62 1010.0
20210916070125 69 50 0.9 4.3 0.00 0.00 0.00 61 1010.1
20210916065625 69 94 0.9 3.5 0.00 0.00 0.00 61 1010.1
20210916065125 69 130 0.9 4.3 0.00 0.00 0.00 61 1010.1
20210916064623 69 276 0.9 4.3 0.00 0.00 0.00 61 1010.1
20210916064123 69 14 0.9 3.5 0.00 0.00 0.00 61 1010.0
20210916063623 69 167 0.9 4.3 0.00 0.00 0.00 61 1010.0
20210916063123 69 236 0.9 5.2 0.00 0.00 0.00 61 1010.0
20210916062623 69 136 0.0 5.2 0.00 0.00 0.00 60 1010.0
20210916062123 68 25 0.9 3.5 0.00 0.00 0.00 60 1010.0
20210916061626 68 72 0.9 4.3 0.00 0.00 0.00 60 1010.1
20210916061123 68 224 0.0 4.3 0.00 0.00 0.00 60 1010.1
20210916060623 68 103 0.9 5.2 0.00 0.00 0.00 60 1010.1
20210916060122 68 122 0.9 5.2 0.00 0.00 0.00 59 1010.1
20210916055623 69 197 0.9 4.3 0.00 0.00 0.00 59 1010.2
20210916055123 69 68 0.9 4.3 0.00 0.00 0.00 59 1010.2
20210916054622 69 77 0.9 7.0 0.00 0.00 0.00 59 1010.3
20210916054121 69 206 0.9 7.0 0.00 0.00 0.00 59 1010.4
20210916053621 69 74 0.9 4.3 0.00 0.00 0.00 58 1010.5
20210916053121 69 122 0.9 7.0 0.00 0.00 0.00 58 1010.5
20210916052621 69 251 1.7 7.0 0.00 0.00 0.00 58 1010.5
20210916052119 69 129 1.7 7.0 0.00 0.00 0.00 58 1010.5
20210916051617 69 127 0.9 6.1 0.00 0.00 0.00 58 1010.5
20210916051117 69 68 0.9 4.3 0.00 0.00 0.00 58 1010.4
20210916050616 69 108 1.7 6.1 0.00 0.00 0.00 58 1010.4
20210916050116 69 146 1.7 6.1 0.00 0.00 0.00 58 1010.4
20210916045616 68 131 1.7 5.2 0.00 0.00 0.00 58 1010.5
20210916045117 68 86 0.9 5.2 0.00 0.00 0.00 58 1010.5
20210916044616 68 92 0.9 3.5 0.00 0.00 0.00 58 1010.6
20210916044117 68 117 0.9 3.5 0.00 0.00 0.00 57 1010.8
20210916043616 68 98 0.9 4.3 0.00 0.00 0.00 57 1010.8
20210916043116 68 96 0.9 4.3 0.00 0.00 0.00 57 1010.8
20210916042617 69 96 0.9 4.3 0.00 0.00 0.00 56 1010.8
20210916042116 69 250 0.9 7.0 0.00 0.00 0.00 56 1010.8
20210916041616 69 155 0.9 7.0 0.00 0.00 0.00 56 1010.8
20210916041117 69 176 0.9 4.3 0.00 0.00 0.00 56 1010.9
20210916040617 69 129 0.9 5.2 0.00 0.00 0.00 55 1010.9
20210916040117 69 25 0.9 5.2 0.00 0.00 0.00 55 1011.0
20210916035617 69 110 0.9 4.3 0.00 0.00 0.00 55 1011.0
20210916035116 69 162 0.9 6.1 0.00 0.00 0.00 54 1011.1
20210916034617 70 204 0.9 6.1 0.00 0.00 0.00 54 1011.1
20210916034116 70 127 0.9 6.1 0.00 0.00 0.00 53 1011.1
20210916033616 70 118 0.9 6.1 0.00 0.00 0.00 53 1011.1
20210916033117 70 84 0.9 6.1 0.00 0.00 0.00 52 1011.0
20210916032617 70 155 1.7 9.6 0.00 0.00 0.00 52 1010.9
20210916032117 70 93 0.9 9.6 0.00 0.00 0.00 52 1010.9
20210916031617 70 86 0.9 5.2 0.00 0.00 0.00 52 1010.9
20210916031117 70 101 1.7 6.1 0.00 0.00 0.00 52 1010.9
20210916030616 70 188 1.7 6.1 0.00 0.00 0.00 51 1010.8
20210916030117 70 157 1.7 5.2 0.00 0.00 0.00 51 1010.8
20210916025616 70 189 1.7 9.6 0.00 0.00 0.00 51 1010.8
20210916025116 70 113 0.9 9.6 0.00 0.00 0.00 51 1010.6
20210916024614 70 140 0.9 5.2 0.00 0.00 0.00 51 1010.6
20210916024112 70 105 1.7 5.2 0.00 0.00 0.00 51 1010.6
20210916023612 70 114 1.7 7.8 0.00 0.00 0.00 51 1010.5
20210916023112 70 154 0.9 7.8 0.00 0.00 0.00 51 1010.5
20210916022612 70 43 1.7 6.1 0.00 0.00 0.00 51 1010.4
20210916022114 70 181 1.7 5.2 0.00 0.00 0.00 52 1010.5
20210916021612 70 143 0.9 5.2 0.00 0.00 0.00 52 1010.5
20210916021113 70 77 1.7 7.8 0.00 0.00 0.00 52 1010.4
20210916020612 69 172 0.9 7.8 0.00 0.00 0.00 52 1010.3
20210916020112 69 135 0.9 4.3 0.00 0.00 0.00 52 1010.3
20210916015612 69 134 0.9 4.3 0.00 0.00 0.00 52 1010.3
20210916015112 70 105 0.9 6.1 0.00 0.00 0.00 51 1010.3
20210916014612 70 147 0.9 6.1 0.00 0.00 0.00 51 1010.3
20210916014113 70 120 0.9 2.6 0.00 0.00 0.00 50 1010.2
20210916013612 70 70 0.0 2.6 0.00 0.00 0.00 50 1010.2
20210916013111 70 96 0.0 3.5 0.00 0.00 0.00 50 1010.3
20210916012610 70 165 0.0 3.5 0.00 0.00 0.00 50 1010.3
20210916012110 70 166 0.0 1.7 0.00 0.00 0.00 49 1010.2
20210916011610 70 94 0.0 0.9 0.00 0.00 0.00 48 1010.2
20210916011107 71 94 0.0 1.7 0.00 0.00 0.00 48 1010.2
20210916010606 71 94 0.0 2.6 0.00 0.00 0.00 48 1010.1
20210916010107 71 94 0.0 2.6 0.00 0.00 0.00 47 1010.1
20210916005606 71 95 0.0 2.6 0.00 0.00 0.00 47 1010.1
20210916005106 71 141 0.0 0.9 0.00 0.00 0.00 47 1010.1
20210916004607 71 141 0.0 2.6 0.00 0.00 0.00 47 1010.0
20210916004108 72 141 0.0 2.6 0.00 0.00 0.00 47 1010.1
20210916003606 72 141 0.0 0.9 0.00 0.00 0.00 46 1010.0
20210916003104 72 141 0.0 1.7 0.00 0.00 0.00 46 1010.0
20210916002605 73 141 0.0 1.7 0.00 0.00 0.00 46 1009.9
20210916002105 73 141 0.0 1.7 0.00 0.00 0.00 45 1009.8
20210916001604 73 101 0.0 1.7 0.00 0.00 0.00 45 1009.9
20210916001104 73 100 0.0 2.6 0.00 0.00 0.00 44 1009.9
20210916000604 74 96 0.0 2.6 0.00 0.00 0.00 44 1009.8
20210916000104 74 81 0.0 1.7 0.00 0.00 0.00 44 1009.8
20210915235604 74 145 0.0 1.7 0.00 0.00 0.00 44 1009.8
20210915235104 74 86 0.0 1.7 0.00 0.00 0.00 44 1009.8
20210915234604 74 82 0.0 3.5 0.00 0.00 0.00 44 1009.8
20210915234102 74 183 0.0 3.5 0.00 0.00 0.00 43 1009.8
20210915233602 75 87 0.9 3.5 0.00 0.00 0.00 43 1009.8
20210915233102 75 162 0.9 4.3 0.00 0.00 0.00 42 1009.9
20210915232602 75 167 0.9 4.3 0.00 0.00 0.00 42 1009.9
20210915232102 75 148 0.9 2.6 0.00 0.00 0.00 42 1010.0
20210915231604 75 95 0.9 3.5 0.00 0.00 0.00 42 1010.0
20210915231102 76 174 0.9 3.5 0.00 0.00 0.00 42 1010.0
20210915230602 76 92 0.9 3.5 0.00 0.00 0.00 42 1010.1
20210915230102 76 119 0.9 7.0 0.00 0.00 0.00 41 1010.2
20210915225602 76 171 0.9 7.0 0.00 0.00 0.00 40 1010.4
20210915225100 76 74 0.9 4.3 0.00 0.00 0.00 40 1010.3
20210915224600 77 84 0.0 4.3 0.00 0.00 0.00 41 1010.3
20210915224100 77 115 0.0 3.5 0.00 0.00 0.00 40 1010.4
20210915223601 77 123 0.9 3.5 0.00 0.00 0.00 39 1010.4
20210915223100 77 82 0.9 3.5 0.00 0.00 0.00 39 1010.4
20210915222600 77 170 0.0 3.5 0.00 0.00 0.00 40 1010.5
20210915222100 77 88 0.0 1.7 0.00 0.00 0.00 40 1010.5
20210915221600 77 87 0.0 1.7 0.00 0.00 0.00 41 1010.5
20210915221059 77 87 0.0 2.6 0.00 0.00 0.00 40 1010.6
20210915220600 77 85 0.9 5.2 0.00 0.00 0.00 40 1010.6
20210915220058 77 127 0.9 5.2 0.00 0.00 0.00 39 1010.9
20210915215558 77 176 0.0 3.5 0.00 0.00 0.00 38 1010.9
20210915215058 77 108 0.9 6.1 0.00 0.00 0.00 37 1011.0
20210915214600 77 219 0.9 6.1 0.00 0.00 0.00 38 1011.0
20210915214058 78 48 0.9 4.3 0.00 0.00 0.00 38 1011.0
20210915213558 78 176 0.9 4.3 0.00 0.00 0.00 37 1011.1
20210915213058 78 287 0.9 4.3 0.00 0.00 0.00 36 1011.2
20210915212558 78 285 0.9 4.3 0.00 0.00 0.00 38 1011.2
20210915212058 77 166 0.9 5.2 0.00 0.00 0.00 38 1011.1
20210915211557 77 86 0.9 5.2 0.00 0.00 0.00 38 1011.2
20210915211056 77 161 0.9 4.3 0.00 0.00 0.00 40 1011.2
20210915210556 76 266 0.0 2.6 0.00 0.00 0.00 40 1011.4
20210915210056 76 128 0.9 5.2 0.00 0.00 0.00 40 1011.4
20210915205556 76 86 0.9 5.2 0.00 0.00 0.00 40 1011.5
20210915205056 76 46 0.0 3.5 0.00 0.00 0.00 41 1011.6
20210915204556 76 63 0.0 2.6 0.00 0.00 0.00 42 1011.6
20210915204055 76 61 0.9 3.5 0.00 0.00 0.00 41 1011.7
20210915203556 76 151 0.9 4.3 0.00 0.00 0.00 38 1011.8
20210915203056 77 198 0.9 4.3 0.00 0.00 0.00 38 1011.9
20210915202554 77 127 0.9 3.5 0.00 0.00 0.00 39 1011.9
20210915202053 77 91 0.9 3.5 0.00 0.00 0.00 38 1012.0
20210915201553 77 209 0.9 6.1 0.00 0.00 0.00 39 1012.1
20210915201053 77 133 0.9 6.1 0.00 0.00 0.00 38 1012.2
20210915200554 77 118 0.9 4.3 0.00 0.00 0.00 38 1012.3
20210915200054 77 261 0.9 3.5 0.00 0.00 0.00 39 1012.3
20210915195554 77 140 0.9 3.5 0.00 0.00 0.00 39 1012.3
20210915194554 77 267 0.9 2.6 0.00 0.00 0.00 39 1012.5
20210915194054 77 267 0.9 3.5 0.00 0.00 0.00 39 1012.6
20210915193554 77 265 1.7 5.2 0.00 0.00 0.00 39 1012.6
20210915193053 77 275 0.9 5.2 0.00 0.00 0.00 39 1012.6
20210915192554 77 215 0.9 4.3 0.00 0.00 0.00 41 1012.7
20210915192054 77 253 0.9 3.5 0.00 0.00 0.00 40 1012.7
20210915191553 77 210 0.9 4.3 0.00 0.00 0.00 40 1012.7
20210915191054 76 162 0.9 4.3 0.00 0.00 0.00 40 1012.8
20210915190554 76 278 0.9 2.6 0.00 0.00 0.00 42 1013.0
20210915190051 76 264 1.7 4.3 0.00 0.00 0.00 41 1013.0
20210915185552 76 264 1.7 4.3 0.00 0.00 0.00 40 1013.1
20210915185050 76 268 1.7 3.5 0.00 0.00 0.00 40 1013.2
20210915184550 76 269 1.7 5.2 0.00 0.00 0.00 43 1013.2
20210915184049 76 271 1.7 5.2 0.00 0.00 0.00 43 1013.2
20210915183550 76 262 1.7 5.2 0.00 0.00 0.00 45 1013.3
20210915183050 76 79 0.9 5.2 0.00 0.00 0.00 45 1013.4
20210915182549 75 249 0.9 4.3 0.00 0.00 0.00 46 1013.5
20210915182050 75 258 0.9 5.2 0.00 0.00 0.00 46 1013.5
20210915181550 75 271 0.9 5.2 0.00 0.00 0.00 47 1013.5
20210915181049 75 266 0.9 4.3 0.00 0.00 0.00 46 1013.5
20210915180550 75 153 0.9 3.5 0.00 0.00 0.00 52 1013.5
20210915180050 75 138 0.9 3.5 0.00 0.00 0.00 52 1013.6
20210915175549 74 153 1.7 3.5 0.00 0.00 0.00 51 1013.6
20210915175047 74 268 0.9 3.5 0.00 0.00 0.00 52 1013.7
20210915174548 74 268 0.9 3.5 0.00 0.00 0.00 52 1013.7
20210915174048 74 301 0.9 3.5 0.00 0.00 0.00 55 1013.8
20210915173547 73 238 0.9 2.6 0.00 0.00 0.00 56 1013.8
20210915173047 73 238 0.9 2.6 0.00 0.00 0.00 56 1013.9
20210915172547 73 239 0.9 3.5 0.00 0.00 0.00 56 1014.0
20210915172050 73 239 0.9 3.5 0.00 0.00 0.00 55 1014.0
20210915171546 72 200 0.9 2.6 0.00 0.00 0.00 55 1014.0
20210915171045 72 220 0.9 2.6 0.00 0.00 0.00 57 1014.0
20210915170545 72 220 0.9 2.6 0.00 0.00 0.00 56 1014.0
20210915170044 71 220 0.9 2.6 0.00 0.00 0.00 58 1014.1
20210915165544 71 150 0.9 2.6 0.00 0.00 0.00 60 1014.1
20210915165042 70 150 0.9 3.5 0.00 0.00 0.00 58 1014.1
20210915164541 70 224 0.9 3.5 0.00 0.00 0.00 59 1014.1
20210915164042 70 92 0.9 2.6 0.00 0.00 0.00 59 1014.1
20210915163541 69 92 0.9 2.6 0.00 0.00 0.00 59 1014.1
20210915163042 69 91 0.9 2.6 0.00 0.00 0.00 61 1014.1
20210915162541 69 91 0.9 2.6 0.00 0.00 0.00 61 1014.3
20210915162042 68 110 0.9 2.6 0.00 0.00 0.00 63 1014.3
20210915161541 68 110 0.9 2.6 0.00 0.00 0.00 63 1014.5
20210915161041 67 242 0.9 2.6 0.00 0.00 0.00 65 1014.5
20210915160542 67 257 0.9 2.6 0.00 0.00 0.00 65 1014.6
20210915160041 66 257 0.9 2.6 0.00 0.00 0.00 64 1014.6
20210915155541 66 257 0.9 2.6 0.00 0.00 0.00 65 1014.6
20210915155042 66 257 0.9 2.6 0.00 0.00 0.00 65 1014.6
20210915154541 65 257 0.9 3.5 0.00 0.00 0.00 66 1014.6
20210915154041 65 257 0.9 3.5 0.00 0.00 0.00 67 1014.7
20210915153541 64 257 0.9 4.3 0.00 0.00 0.00 66 1014.7
20210915153042 64 257 0.9 4.3 0.00 0.00 0.00 69 1014.6
20210915152542 64 257 0.9 3.5 0.00 0.00 0.00 70 1014.7
20210915152041 63 257 1.7 3.5 0.00 0.00 0.00 70 1014.6
20210915151541 63 257 1.7 3.5 0.00 0.00 0.00 71 1014.6
20210915151042 63 196 0.9 3.5 0.00 0.00 0.00 72 1014.5
20210915150542 62 193 0.9 2.6 0.00 0.00 0.00 73 1014.3
20210915150042 62 193 0.9 2.6 0.00 0.00 0.00 74 1014.3
20210915145542 61 193 0.9 3.5 0.00 0.00 0.00 75 1014.3
20210915145041 61 193 0.9 3.5 0.00 0.00 0.00 75 1014.3
20210915144541 60 190 0.9 2.6 0.00 0.00 0.00 76 1014.2
20210915144042 60 190 0.9 2.6 0.00 0.00 0.00 76 1014.3
20210915143540 60 190 0.9 2.6 0.00 0.00 0.00 78 1014.2
20210915143040 59 190 0.9 2.6 0.00 0.00 0.00 79 1014.2
20210915142539 59 190 0.9 2.6 0.00 0.00 0.00 80 1014.1
20210915142040 58 190 0.0 2.6 0.00 0.00 0.00 81 1014.1
20210915141539 58 190 0.0 0.9 0.00 0.00 0.00 83 1014.0
20210915141039 57 190 0.0 1.7 0.00 0.00 0.00 83 1014.1
20210915140538 57 190 0.0 2.6 0.00 0.00 0.00 84 1014.0
20210915140037 56 190 0.0 2.6 0.00 0.00 0.00 85 1014.0
20210915135537 56 190 0.0 2.6 0.00 0.00 0.00 86 1014.0
20210915135035 56 127 0.0 1.7 0.00 0.00 0.00 86 1014.0
20210915134535 55 124 0.0 1.7 0.00 0.00 0.00 88 1014.0
20210915134036 55 124 0.0 1.7 0.00 0.00 0.00 88 1014.0
20210915133533 54 124 0.0 1.7 0.00 0.00 0.00 89 1014.0
20210915133033 54 124 0.0 1.7 0.00 0.00 0.00 89 1014.0
20210915132533 53 124 0.0 0.9 0.00 0.00 0.00 90 1013.9
20210915132034 53 124 0.0 0.9 0.00 0.00 0.00 90 1013.9
20210915131532 53 124 0.0 0.9 0.00 0.00 0.00 90 1013.9
20210915131031 53 124 0.0 0.9 0.00 0.00 0.00 90 1013.9
20210915130531 52 259 0.0 0.9 0.00 0.00 0.00 91 1013.9
20210915130034 52 259 0.0 0.9 0.00 0.00 0.00 90 1013.9
20210915125531 52 259 0.0 0.9 0.00 0.00 0.00 91 1013.9
20210915125030 52 259 0.0 0.9 0.00 0.00 0.00 91 1014.0
20210915124529 51 259 0.0 0.0 0.00 0.00 0.00 91 1013.8
20210915124030 51 259 0.0 0.0 0.00 0.00 0.00 91 1013.9
20210915123529 51 259 0.0 0.0 0.00 0.00 0.00 91 1013.8
20210915123029 51 259 0.0 0.9 0.00 0.00 0.00 91 1013.7
20210915122528 51 259 0.0 0.9 0.00 0.00 0.00 91 1013.6
20210915122027 51 259 0.0 0.9 0.00 0.00 0.00 91 1013.6
20210915121527 51 259 0.0 0.9 0.00 0.00 0.00 91 1013.6
20210915121027 51 259 0.0 0.0 0.00 0.00 0.00 91 1013.6
20210915120527 51 259 0.0 1.7 0.00 0.00 0.00 91 1013.6
20210915120027 51 259 0.0 1.7 0.00 0.00 0.00 92 1013.5
20210915115527 51 259 0.0 0.0 0.00 0.00 0.00 92 1013.5
20210915115027 51 259 0.0 0.0 0.00 0.00 0.00 92 1013.6
20210915114527 51 259 0.0 0.0 0.00 0.00 0.00 92 1013.4
20210915114027 51 259 0.0 0.0 0.00 0.00 0.00 92 1013.3
20210915113528 51 259 0.0 0.0 0.00 0.00 0.00 92 1013.3
20210915113025 51 259 0.0 0.0 0.00 0.00 0.00 92 1013.4
20210915112525 51 259 0.0 0.0 0.00 0.00 0.00 92 1013.4
20210915112025 51 259 0.0 0.0 0.00 0.00 0.00 92 1013.3
20210915111525 51 259 0.0 0.0 0.00 0.00 0.00 92 1013.3
20210915111025 51 259 0.0 0.0 0.00 0.00 0.00 92 1013.2
20210915110526 51 259 0.0 0.0 0.00 0.00 0.00 92 1013.3
20210915110026 51 259 0.0 0.0 0.00 0.00 0.00 92 1013.2
20210915105525 51 259 0.0 0.0 0.00 0.00 0.00 92 1013.2
20210915105025 52 259 0.0 0.0 0.00 0.00 0.00 92 1013.2